| time (UTC) | temp F | wind direction | speed knots | gust knots | rain 1hr in | rain 24hr in | rain mn in | humidity % | barometer mb |
| 20260902140009 | 85 | 189 | 0.0 | 4.3 | 0.00 | 0.00 | 0.00 | 64 | 1016.3 |
| 20260902134529 | 85 | 207 | 0.0 | 5.2 | 0.00 | 0.00 | 0.00 | 63 | 1016.4 |
| 20260902133047 | 86 | 268 | 0.0 | 7.8 | 0.00 | 0.00 | 0.00 | 67 | 1016.2 |
| 20260902131611 | 86 | 263 | 0.0 | 7.0 | 0.00 | 0.00 | 0.00 | 65 | 1016.3 |
| 20260902130107 | 89 | 199 | 0.0 | 14.8 | 0.00 | 0.00 | 0.00 | 61 | 1016.3 |
| 20260902124545 | 90 | 209 | 0.9 | 13.9 | 0.00 | 0.00 | 0.00 | 47 | 1016.4 |
| 20260902123100 | 90 | 149 | 5.2 | 14.8 | 0.00 | 0.00 | 0.00 | 47 | 1016.5 |
| 20260902121558 | 90 | 223 | 1.7 | 10.4 | 0.00 | 0.00 | 0.00 | 47 | 1016.6 |
| 20260902120100 | 90 | 189 | 7.0 | 13.9 | 0.00 | 0.00 | 0.00 | 47 | 1016.8 |
| 20260902114554 | 90 | 215 | 3.5 | 13.0 | 0.00 | 0.00 | 0.00 | 47 | 1017.0 |
| 20260902113037 | 89 | 205 | 6.1 | 11.3 | 0.00 | 0.00 | 0.00 | 48 | 1017.2 |
| 20260902111545 | 89 | 196 | 1.7 | 11.3 | 0.00 | 0.00 | 0.00 | 49 | 1017.5 |
| 20260902110008 | 89 | 200 | 5.2 | 11.3 | 0.00 | 0.00 | 0.00 | 49 | 1017.8 |
| 20260902104509 | 88 | 211 | 3.5 | 10.4 | 0.00 | 0.00 | 0.00 | 50 | 1018.2 |
| 20260902103004 | 88 | 138 | 1.7 | 12.2 | 0.00 | 0.00 | 0.00 | 52 | 1018.4 |
| 20260902101510 | 86 | 205 | 3.5 | 12.2 | 0.00 | 0.00 | 0.00 | 53 | 1018.7 |
| 20260902100023 | 86 | 143 | 3.5 | 10.4 | 0.00 | 0.00 | 0.00 | 53 | 1019.1 |
| 20260902094511 | 86 | 123 | 2.6 | 14.8 | 0.00 | 0.00 | 0.00 | 54 | 1019.5 |
| 20260902093015 | 85 | 151 | 3.5 | 10.4 | 0.00 | 0.00 | 0.00 | 55 | 1019.9 |
| 20260902091503 | 84 | 138 | 2.6 | 12.2 | 0.00 | 0.00 | 0.00 | 58 | 1020.1 |
| 20260902090059 | 83 | 155 | 1.7 | 8.7 | 0.00 | 0.00 | 0.00 | 61 | 1020.4 |
| 20260902084548 | 82 | 132 | 0.9 | 8.7 | 0.00 | 0.00 | 0.00 | 63 | 1020.7 |
| 20260902083051 | 81 | 132 | 1.7 | 8.7 | 0.00 | 0.00 | 0.00 | 64 | 1021.0 |
| 20260902081548 | 80 | 194 | 0.9 | 8.7 | 0.00 | 0.00 | 0.00 | 67 | 1021.1 |
| 20260902080052 | 78 | 163 | 1.7 | 7.8 | 0.00 | 0.00 | 0.00 | 69 | 1021.3 |
| 20260902074531 | 77 | 184 | 0.9 | 9.6 | 0.00 | 0.00 | 0.00 | 73 | 1021.4 |
| 20260902073029 | 76 | 165 | 1.7 | 7.8 | 0.00 | 0.00 | 0.00 | 75 | 1021.4 |
| 20260902071537 | 75 | 121 | 1.7 | 7.8 | 0.00 | 0.00 | 0.00 | 76 | 1021.5 |
| 20260902070120 | 74 | 201 | 1.7 | 7.8 | 0.00 | 0.00 | 0.00 | 78 | 1021.6 |
| 20260902064555 | 73 | 140 | 0.9 | 8.7 | 0.00 | 0.00 | 0.00 | 80 | 1021.4 |
| 20260902063026 | 72 | 146 | 0.0 | 8.7 | 0.00 | 0.00 | 0.00 | 84 | 1021.4 |
| 20260902061517 | 70 | 170 | 0.0 | 7.0 | 0.00 | 0.00 | 0.00 | 87 | 1021.3 |
| 20260902060009 | 70 | 150 | 0.9 | 4.3 | 0.00 | 0.00 | 0.00 | 89 | 1021.3 |
| 20260902054530 | 69 | 148 | 0.0 | 7.0 | 0.00 | 0.00 | 0.00 | 90 | 1021.3 |
| 20260902053037 | 68 | 130 | 0.9 | 4.3 | 0.00 | 0.00 | 0.00 | 91 | 1021.3 |
| 20260902051540 | 68 | 205 | 2.6 | 6.1 | 0.00 | 0.00 | 0.00 | 92 | 1021.3 |
| 20260902050017 | 68 | 156 | 1.7 | 4.3 | 0.00 | 0.00 | 0.00 | 93 | 1021.1 |
| 20260902044536 | 67 | 137 | 0.0 | 2.6 | 0.00 | 0.00 | 0.00 | 93 | 1021.1 |
| 20260902043052 | 67 | 132 | 0.9 | 2.6 | 0.00 | 0.00 | 0.00 | 93 | 1020.9 |
| 20260902041502 | 67 | 132 | 0.9 | 1.7 | 0.00 | 0.00 | 0.00 | 92 | 1020.7 |
| 20260902040123 | 67 | 132 | 0.9 | 1.7 | 0.00 | 0.00 | 0.00 | 92 | 1020.7 |
| 20260902034518 | 67 | 132 | 0.0 | 1.7 | 0.00 | 0.00 | 0.00 | 92 | 1020.6 |
| 20260902033036 | 68 | 132 | 0.0 | 1.7 | 0.00 | 0.00 | 0.00 | 92 | 1020.5 |
| 20260902031550 | 68 | 132 | 0.0 | 0.9 | 0.00 | 0.00 | 0.00 | 92 | 1020.3 |
| 20260902030114 | 68 | 132 | 0.9 | 1.7 | 0.00 | 0.00 | 0.00 | 92 | 1020.2 |
| 20260902024501 | 68 | 132 | 0.9 | 2.6 | 0.00 | 0.00 | 0.00 | 92 | 1020.1 |
| 20260902023034 | 68 | 132 | 0.9 | 2.6 | 0.00 | 0.00 | 0.00 | 92 | 1020.0 |
| 20260902021547 | 68 | 132 | 0.9 | 3.5 | 0.00 | 0.00 | 0.00 | 92 | 1019.9 |
| 20260902020023 | 68 | 128 | 1.7 | 3.5 | 0.00 | 0.00 | 0.00 | 92 | 1020.0 |
| 20260902014546 | 68 | 92 | 0.9 | 2.6 | 0.00 | 0.00 | 0.00 | 92 | 1020.1 |
| 20260902013046 | 69 | 90 | 0.9 | 2.6 | 0.00 | 0.00 | 0.00 | 92 | 1020.0 |
| 20260902011556 | 69 | 95 | 1.7 | 3.5 | 0.00 | 0.00 | 0.00 | 92 | 1020.1 |
| 20260902004557 | 70 | 82 | 0.9 | 2.6 | 0.00 | 0.00 | 0.00 | 91 | 1020.1 |
| 20260902003004 | 70 | 81 | 1.7 | 2.6 | 0.00 | 0.00 | 0.00 | 91 | 1020.2 |
| 20260902001528 | 70 | 94 | 0.9 | 3.5 | 0.00 | 0.00 | 0.00 | 90 | 1020.3 |
| 20260902000036 | 70 | 158 | 0.9 | 3.5 | 0.00 | 0.00 | 0.00 | 90 | 1020.4 |
| 20260901234535 | 70 | 180 | 0.9 | 1.7 | 0.00 | 0.00 | 0.00 | 90 | 1020.5 |
| 20260901233055 | 70 | 184 | 0.0 | 5.2 | 0.00 | 0.00 | 0.00 | 91 | 1020.6 |
| 20260901231511 | 70 | 164 | 1.7 | 4.3 | 0.00 | 0.00 | 0.00 | 92 | 1020.7 |
| 20260901230007 | 70 | 142 | 0.9 | 3.5 | 0.00 | 0.00 | 0.00 | 92 | 1020.7 |
| 20260901224518 | 71 | 157 | 1.7 | 6.1 | 0.00 | 0.00 | 0.00 | 92 | 1020.6 |
| 20260901223025 | 72 | 195 | 3.5 | 7.0 | 0.00 | 0.00 | 0.00 | 92 | 1020.5 |
| 20260901221539 | 72 | 166 | 6.1 | 11.3 | 0.00 | 0.00 | 0.00 | 92 | 1020.4 |
| 20260901220111 | 72 | 223 | 7.0 | 12.2 | 0.00 | 0.00 | 0.00 | 92 | 1020.4 |
| 20260901214535 | 72 | 219 | 4.3 | 11.3 | 0.00 | 0.00 | 0.00 | 92 | 1020.4 |
| 20260901213101 | 72 | 170 | 7.0 | 12.2 | 0.00 | 0.00 | 0.00 | 92 | 1020.5 |
| 20260901211556 | 72 | 198 | 7.0 | 13.0 | 0.00 | 0.00 | 0.00 | 93 | 1020.5 |
| 20260901210106 | 72 | 199 | 4.3 | 12.2 | 0.00 | 0.00 | 0.00 | 93 | 1020.5 |
| 20260901204614 | 72 | 214 | 6.1 | 10.4 | 0.00 | 0.00 | 0.00 | 93 | 1020.6 |
| 20260901203026 | 72 | 188 | 4.3 | 10.4 | 0.00 | 0.00 | 0.00 | 93 | 1020.5 |
| 20260901201527 | 72 | 197 | 6.1 | 13.0 | 0.00 | 0.00 | 0.00 | 94 | 1020.5 |
| 20260901200018 | 72 | 227 | 5.2 | 11.3 | 0.00 | 0.00 | 0.00 | 94 | 1020.6 |
| 20260901194544 | 72 | 202 | 5.2 | 10.4 | 0.00 | 0.00 | 0.00 | 94 | 1020.6 |
| 20260901193106 | 72 | 219 | 7.0 | 11.3 | 0.00 | 0.00 | 0.00 | 93 | 1020.5 |
| 20260901191504 | 72 | 217 | 4.3 | 11.3 | 0.00 | 0.00 | 0.00 | 93 | 1020.5 |
| 20260901190115 | 72 | 217 | 1.7 | 10.4 | 0.00 | 0.00 | 0.00 | 92 | 1020.4 |
| 20260901184524 | 73 | 209 | 3.5 | 10.4 | 0.00 | 0.00 | 0.00 | 92 | 1020.4 |
| 20260901183037 | 73 | 207 | 1.7 | 10.4 | 0.00 | 0.00 | 0.00 | 91 | 1020.4 |
| 20260901181547 | 73 | 236 | 2.6 | 8.7 | 0.00 | 0.00 | 0.00 | 90 | 1020.2 |
| 20260901180056 | 73 | 201 | 2.6 | 9.6 | 0.00 | 0.00 | 0.00 | 90 | 1020.0 |
| 20260901174542 | 73 | 197 | 1.7 | 6.1 | 0.00 | 0.00 | 0.00 | 89 | 1020.0 |
| 20260901173054 | 73 | 228 | 2.6 | 7.8 | 0.00 | 0.00 | 0.00 | 88 | 1019.8 |
| 20260901171601 | 73 | 202 | 0.9 | 7.8 | 0.00 | 0.00 | 0.00 | 89 | 1019.6 |
| 20260901170111 | 73 | 198 | 2.6 | 7.8 | 0.00 | 0.00 | 0.00 | 90 | 1019.5 |
| 20260901164524 | 73 | 209 | 1.7 | 6.1 | 0.00 | 0.00 | 0.00 | 90 | 1019.4 |
| 20260901163037 | 73 | 227 | 2.6 | 7.0 | 0.00 | 0.00 | 0.00 | 90 | 1019.3 |
| 20260901161557 | 73 | 206 | 0.9 | 7.0 | 0.00 | 0.00 | 0.00 | 90 | 1019.3 |
| 20260901160104 | 74 | 198 | 0.9 | 8.7 | 0.00 | 0.00 | 0.00 | 90 | 1019.2 |
| 20260901154604 | 74 | 209 | 0.9 | 7.0 | 0.00 | 0.00 | 0.00 | 90 | 1019.1 |
| 20260901153031 | 74 | 195 | 1.7 | 7.0 | 0.00 | 0.00 | 0.00 | 89 | 1019.0 |
| 20260901151558 | 74 | 243 | 0.0 | 11.3 | 0.00 | 0.00 | 0.00 | 89 | 1018.9 |
| 20260901150058 | 75 | 231 | 2.6 | 8.7 | 0.00 | 0.00 | 0.00 | 88 | 1018.9 |
| 20260901144552 | 76 | 252 | 2.6 | 7.8 | 0.00 | 0.00 | 0.00 | 86 | 1018.8 |
| 20260901143001 | 76 | 242 | 0.9 | 8.7 | 0.00 | 0.00 | 0.00 | 84 | 1018.9 |
| 20260901141531 | 77 | 263 | 4.3 | 8.7 | 0.00 | 0.00 | 0.00 | 82 | 1018.9 |